星链-36126(STARLINK-36126)

导读

STARLINK-36126是美国SpaceX星链星座的成员卫星,星链项目旨在构建全球卫星互联网星座,提供覆盖全球的高速互联网接入服务。该卫星于2025年12月2日发射入轨,加入星链低轨星座网络,延续星链项目全球服务覆盖的扩张节奏,推进低轨通信星座的部署进程,提升星座服务的覆盖密度与稳定性。

Basic Information
目录编号:
66866
目录名称:
STARLINK-36126
国际标识:
2025-281U
轨道中心:
EARTH
卫星名称:
星链-36126
卫星全名:
星链-36126(STARLINK-36126)
卫星状态:
在轨 (已飞行276 天)
发射日期:
2025-12-02 UTC
国别 :
美国 (US)
星等 :
--
Orbit Information
数据来源 国际轨道数据
星历时间: 2026-09-04T05:15:45+0800
18小时前
查看轨道信息
半长轴: 6861.178km
偏心率: 0.0002054
轨道倾角: 43.001°
近地点辐角 252.244°
升交点赤经 57.517°
平近点角 107.819°
近地点: 481.631km
远地点: 484.451km
周期: 94.267分钟
每日圈数: 15.275829
Detailed Information
固有亮度:
5
最大亮度:
2.5
卫星平台:
Starlink V1.0
覆盖范围:
全球
运营商:
太空探索技术公司
运营商所在国:
美国
制造商(研发单位):
太空探索技术公司
制造商所在国:
美国
使用方式:
暂无
Satellite Introduction
Starlink 计划是 SpaceX 推出的全球卫星互联网项目,通过发射低轨道卫星,为全球尤其是偏远地区提供高速、低延迟的互联网服务。自 2019 年起,Starlink 已部署数千颗卫星,旨在缩小全球数字鸿沟,推动互联网普及。该项目还为军事、航空等行业提供通信支持,带来广泛经济效益。
2D Orbit Map
3D Orbit Map
Orbit Altitude Analysis Chart
Orbit Inclination Analysis Chart
Orbit Comprehensive Analysis Chart
View Comprehensive Chart
Conjunction Data List
Event ID Objects TCA Miss Dist (km) Collision Risk Probability Collision Risk Index (CRI) Action
CDM_260904-231205-306606-686621
2026-09-04T
23:12:56+0000
1.886 km
极远距离
2.091177E-6 低风险 0.41